SQ5DCP-1 Weather Reports


Display with metric or nautical units.
time (UTC)temp
F
wind
direction
speed
MPH
gust
MPH
rain 1hr
in
rain 24hr
in
rain mn
in
humidity
%
barometer
mb
20260503004523 50 0.0 0.0 0.00 0.00 0.00 65 1020.0
20260503004021 50 0.0 0.0 0.00 0.00 0.00 65 1019.9
20260503003521 50 0.0 0.0 0.00 0.00 0.00 64 1019.9
20260503003054 51 0.0 0.0 0.00 0.00 0.00 64 1019.9
20260503003018 51 0.0 0.0 0.00 0.00 0.00 64 1019.9
20260503002516 51 0.0 0.0 0.00 0.00 0.00 64 1019.9
20260503002034 51 0.0 0.0 0.00 0.00 0.00 64 1019.9
20260503001532 51 0.0 0.0 0.00 0.00 0.00 64 1019.9
20260503001031 51 0.0 0.0 0.00 0.00 0.00 64 1020.0
20260503000528 51 0.0 0.0 0.00 0.00 0.00 64 1020.0
20260503000027 51 0.0 0.0 0.00 0.00 0.00 63 1020.0
20260502235525 52 231 0.0 1.0 0.00 0.00 0.00 63 1020.1
20260502235023 52 231 1.0 2.0 0.00 0.00 0.00 63 1020.0
20260502234521 52 238 1.0 2.0 0.00 0.00 0.00 63 1020.1
20260502234050 52 232 0.0 2.0 0.00 0.00 0.00 63 1020.0
20260502234019 52 232 0.0 2.0 0.00 0.00 0.00 63 1020.0
20260502233518 52 250 1.0 2.0 0.00 0.00 0.00 63 1020.1
20260502233047 52 236 1.0 3.0 0.00 0.00 0.00 63 1020.1
20260502233016 52 236 1.0 3.0 0.00 0.00 0.00 63 1020.1
20260502232534 52 233 1.0 3.0 0.00 0.00 0.00 63 1020.0
20260502232032 53 231 1.0 2.0 0.00 0.00 0.00 63 1020.0
20260502231531 53 224 1.0 2.0 0.00 0.00 0.00 62 1020.1
20260502231030 53 233 1.0 3.0 0.00 0.00 0.00 62 1020.1
20260502230527 53 233 1.0 2.0 0.00 0.00 0.00 61 1020.2
20260502230026 53 230 0.0 1.0 0.00 0.00 0.00 61 1020.2
20260502225523 54 217 0.0 2.0 0.00 0.00 0.00 61 1020.2
20260502225021 54 0.0 0.0 0.00 0.00 0.00 60 1020.2
20260502224519 54 0.0 0.0 0.00 0.00 0.00 60 1020.3
20260502224017 54 0.0 0.0 0.00 0.00 0.00 60 1020.3
20260502223516 54 0.0 0.0 0.00 0.00 0.00 60 1020.2
20260502223034 54 210 0.0 1.0 0.00 0.00 0.00 60 1020.3
20260502222533 54 212 0.0 1.0 0.00 0.00 0.00 60 1020.3
20260502222031 54 215 0.0 1.0 0.00 0.00 0.00 59 1020.3
20260502221529 55 207 0.0 1.0 0.00 0.00 0.00 59 1020.3
20260502221027 55 203 0.0 1.0 0.00 0.00 0.00 59 1020.3
20260502220525 55 230 0.0 1.0 0.00 0.00 0.00 59 1020.4
20260502220023 55 225 0.0 2.0 0.00 0.00 0.00 59 1020.3
20260502215521 55 212 0.0 1.0 0.00 0.00 0.00 58 1020.4
20260502215020 55 207 0.0 2.0 0.00 0.00 0.00 58 1020.4
20260502214517 56 225 0.0 1.0 0.00 0.00 0.00 58 1020.4
20260502214048 56 207 0.0 1.0 0.00 0.00 0.00 57 1020.5
20260502214016 56 207 0.0 1.0 0.00 0.00 0.00 57 1020.5
20260502213534 56 226 0.0 1.0 0.00 0.00 0.00 57 1020.5
20260502213032 56 227 0.0 2.0 0.00 0.00 0.00 57 1020.4
20260502212531 56 0.0 0.0 0.00 0.00 0.00 57 1020.5
20260502212028 56 0.0 0.0 0.00 0.00 0.00 56 1020.6
20260502211526 57 214 0.0 1.0 0.00 0.00 0.00 56 1020.5
20260502211024 57 215 0.0 1.0 0.00 0.00 0.00 56 1020.7
20260502210522 57 209 0.0 1.0 0.00 0.00 0.00 55 1020.6
20260502210020 57 209 0.0 1.0 0.00 0.00 0.00 55 1020.6
20260502205518 58 199 0.0 1.0 0.00 0.00 0.00 54 1020.7
20260502205016 58 235 0.0 2.0 0.00 0.00 0.00 54 1020.7
20260502204534 58 0.0 0.0 0.00 0.00 0.00 53 1020.8
20260502204032 59 0.0 0.0 0.00 0.00 0.00 53 1020.7
20260502203530 59 203 0.0 1.0 0.00 0.00 0.00 53 1020.8
20260502203028 59 0.0 0.0 0.00 0.00 0.00 52 1020.8
20260502202526 59 0.0 0.0 0.00 0.00 0.00 52 1020.8
20260502202024 60 216 0.0 1.0 0.00 0.00 0.00 52 1020.8
20260502201523 60 209 1.0 2.0 0.00 0.00 0.00 51 1020.8
20260502201020 61 194 1.0 3.0 0.00 0.00 0.00 50 1020.8
20260502200518 61 199 1.0 2.0 0.00 0.00 0.00 49 1020.8
20260502200049 61 201 1.0 2.0 0.00 0.00 0.00 49 1020.8
20260502200017 61 201 1.0 2.0 0.00 0.00 0.00 49 1020.8
20260502195534 61 188 2.0 3.0 0.00 0.00 0.00 48 1020.8
20260502195032 62 198 1.0 3.0 0.00 0.00 0.00 48 1020.8
20260502194530 62 198 2.0 4.0 0.00 0.00 0.00 48 1020.8
20260502194028 62 183 2.0 4.0 0.00 0.00 0.00 48 1020.8
20260502193526 62 189 3.0 7.0 0.00 0.00 0.00 47 1020.8
20260502193024 62 186 3.0 4.0 0.00 0.00 0.00 47 1020.9
20260502192523 62 187 3.0 4.0 0.00 0.00 0.00 47 1020.8
20260502192020 62 186 3.0 6.0 0.00 0.00 0.00 47 1020.9
20260502191518 63 187 2.0 4.0 0.00 0.00 0.00 47 1020.9
20260502191048 63 193 2.0 4.0 0.00 0.00 0.00 47 1020.9
20260502191016 63 193 2.0 4.0 0.00 0.00 0.00 47 1020.9
20260502190535 63 190 2.0 3.0 0.00 0.00 0.00 46 1020.9
20260502190033 63 202 1.0 2.0 0.00 0.00 0.00 46 1020.8
20260502185531 64 213 0.0 1.0 0.00 0.00 0.00 45 1020.8
20260502185029 64 225 0.0 1.0 0.00 0.00 0.00 45 1020.7
20260502184528 65 210 0.0 1.0 0.00 0.00 0.00 44 1020.7
20260502184027 65 210 0.0 1.0 0.00 0.00 0.00 44 1020.8
20260502183524 65 232 0.0 1.0 0.00 0.00 0.00 43 1020.6
20260502183022 66 236 0.0 1.0 0.00 0.00 0.00 42 1020.7
20260502182520 66 239 0.0 1.0 0.00 0.00 0.00 42 1020.7
20260502182050 67 237 0.0 1.0 0.00 0.00 0.00 41 1020.7
20260502182018 67 237 0.0 1.0 0.00 0.00 0.00 41 1020.7
20260502181516 67 242 0.0 2.0 0.00 0.00 0.00 41 1020.5
20260502181034 68 235 0.0 2.0 0.00 0.00 0.00 40 1020.6
20260502180532 68 219 0.0 1.0 0.00 0.00 0.00 39 1020.6
20260502164018 73 245 1.0 3.0 0.00 0.00 0.00 33 1020.8
20260502163516 73 273 2.0 3.0 0.00 0.00 0.00 33 1020.7
20260502163034 73 270 1.0 6.0 0.00 0.00 0.00 33 1020.8
20260502162532 73 245 2.0 6.0 0.00 0.00 0.00 33 1020.8
20260502162030 74 237 1.0 6.0 0.00 0.00 0.00 32 1020.9
20260502161528 74 248 1.0 7.0 0.00 0.00 0.00 33 1021.0
20260502161027 74 248 1.0 3.0 0.00 0.00 0.00 32 1021.0
20260502160525 74 247 2.0 7.0 0.00 0.00 0.00 33 1021.1
20260502152023 74 325 1.0 3.0 0.00 0.00 0.00 31 1021.5
20260502151520 74 297 1.0 3.0 0.00 0.00 0.00 31 1021.5
20260502151018 74 281 2.0 6.0 0.00 0.00 0.00 31 1021.5
20260502150516 74 331 2.0 7.0 0.00 0.00 0.00 30 1021.5
20260502130518 73 276 4.0 8.0 0.00 0.00 0.00 33 1022.8
20260502123525 73 322 2.0 4.0 0.00 0.00 0.00 32 1023.3
20260502123022 73 284 2.0 6.0 0.00 0.00 0.00 33 1023.4
20260502122522 73 298 1.0 6.0 0.00 0.00 0.00 34 1023.4
20260502122018 72 286 2.0 7.0 0.00 0.00 0.00 34 1023.6
20260502121516 72 317 1.0 6.0 0.00 0.00 0.00 33 1023.5
20260502121034 72 3 3.0 7.0 0.00 0.00 0.00 32 1023.7
20260502120532 72 308 3.0 8.0 0.00 0.00 0.00 34 1023.7
20260502115527 71 291 5.0 10.0 0.00 0.00 0.00 34 1023.9
20260502115025 71 290 2.0 6.0 0.00 0.00 0.00 34 1023.9
20260502114524 71 117 1.0 3.0 0.00 0.00 0.00 35 1024.0
20260502114022 71 99 2.0 6.0 0.00 0.00 0.00 34 1024.0
20260502113520 71 109 2.0 7.0 0.00 0.00 0.00 34 1024.2
20260502113018 71 76 2.0 4.0 0.00 0.00 0.00 35 1024.1
20260502112535 71 326 3.0 8.0 0.00 0.00 0.00 34 1024.2
20260502112033 71 343 3.0 7.0 0.00 0.00 0.00 35 1024.1
20260502111532 71 77 1.0 3.0 0.00 0.00 0.00 35 1024.2
20260502111029 71 350 1.0 4.0 0.00 0.00 0.00 35 1024.3
20260502110527 71 317 3.0 8.0 0.00 0.00 0.00 35 1024.4
20260502110025 71 299 2.0 7.0 0.00 0.00 0.00 36 1024.3
20260502105523 71 331 4.0 8.0 0.00 0.00 0.00 35 1024.4
20260502105021 71 290 2.0 6.0 0.00 0.00 0.00 37 1024.5
20260502104519 71 230 2.0 6.0 0.00 0.00 0.00 37 1024.6
20260502104050 71 121 3.0 6.0 0.00 0.00 0.00 37 1024.6
20260502104017 71 121 3.0 6.0 0.00 0.00 0.00 37 1024.6
20260502103534 71 111 3.0 6.0 0.00 0.00 0.00 38 1024.7
20260502103032 71 152 2.0 6.0 0.00 0.00 0.00 38 1024.7
20260502102529 70 187 2.0 7.0 0.00 0.00 0.00 39 1024.7
20260502102028 70 154 3.0 8.0 0.00 0.00 0.00 40 1024.7
20260502101526 70 155 1.0 4.0 0.00 0.00 0.00 39 1024.7
20260502101024 70 24 2.0 6.0 0.00 0.00 0.00 38 1024.9
20260502100522 70 259 1.0 4.0 0.00 0.00 0.00 39 1025.0
20260502091524 68 285 2.0 8.0 0.00 0.00 0.00 42 1025.3
20260502091021 68 255 3.0 7.0 0.00 0.00 0.00 42 1025.4
20260502090520 68 225 2.0 7.0 0.00 0.00 0.00 43 1025.4
20260502071517 60 254 2.0 6.0 0.00 0.00 0.00 56 1025.8
20260502071036 59 281 2.0 7.0 0.00 0.00 0.00 57 1025.7
20260502070534 59 226 1.0 3.0 0.00 0.00 0.00 57 1025.8
20260502070031 58 283 3.0 7.0 0.00 0.00 0.00 56 1025.8
20260502065529 58 273 2.0 6.0 0.00 0.00 0.00 59 1025.8
20260502065027 57 270 1.0 4.0 0.00 0.00 0.00 61 1025.9
20260502064526 57 237 1.0 4.0 0.00 0.00 0.00 61 1025.8
20260502064024 56 269 1.0 4.0 0.00 0.00 0.00 62 1025.9
20260502063522 56 263 1.0 3.0 0.00 0.00 0.00 62 1025.9
20260502063020 55 272 1.0 3.0 0.00 0.00 0.00 63 1025.9
20260502062517 55 277 2.0 6.0 0.00 0.00 0.00 64 1025.9
20260502062050 54 277 2.0 6.0 0.00 0.00 0.00 65 1025.9
20260502062015 54 277 2.0 6.0 0.00 0.00 0.00 65 1025.9
20260502061534 53 269 1.0 4.0 0.00 0.00 0.00 66 1026.0
20260502061032 52 285 1.0 3.0 0.00 0.00 0.00 68 1025.9
20260502060530 52 224 0.0 2.0 0.00 0.00 0.00 69 1025.8
20260502060028 51 297 0.0 1.0 0.00 0.00 0.00 70 1025.9
20260502055526 51 0.0 0.0 0.00 0.00 0.00 70 1025.8
20260502055024 50 0.0 0.0 0.00 0.00 0.00 71 1025.9
20260502054523 49 276 0.0 3.0 0.00 0.00 0.00 72 1025.8
20260502054020 49 0.0 0.0 0.00 0.00 0.00 72 1025.9
20260502053518 48 280 0.0 1.0 0.00 0.00 0.00 72 1025.8
20260502053016 47 0.0 0.0 0.00 0.00 0.00 73 1025.8
20260502052535 47 0.0 0.0 0.00 0.00 0.00 73 1025.7
20260502052033 47 0.0 0.0 0.00 0.00 0.00 73 1025.7
20260502051531 46 198 0.0 1.0 0.00 0.00 0.00 73 1025.7
20260502051029 46 0.0 0.0 0.00 0.00 0.00 73 1025.8
20260502050527 45 0.0 0.0 0.00 0.00 0.00 73 1025.8
20260502050025 45 196 0.0 1.0 0.00 0.00 0.00 73 1025.8
20260502045523 45 0.0 0.0 0.00 0.00 0.00 74 1025.8
20260502045022 44 0.0 0.0 0.00 0.00 0.00 73 1025.9
20260502044519 44 0.0 0.0 0.00 0.00 0.00 72 1025.8
20260502044018 44 181 0.0 2.0 0.00 0.00 0.00 72 1025.9
20260502043536 43 161 0.0 1.0 0.00 0.00 0.00 72 1025.9
20260502043033 43 0.0 0.0 0.00 0.00 0.00 73 1025.9
20260502042531 43 0.0 0.0 0.00 0.00 0.00 73 1025.9
20260502042029 43 0.0 0.0 0.00 0.00 0.00 73 1025.8
20260502041527 43 0.0 0.0 0.00 0.00 0.00 72 1025.7
20260502041025 42 0.0 0.0 0.00 0.00 0.00 72 1025.7
20260502040523 42 0.0 0.0 0.00 0.00 0.00 72 1025.6
20260502040021 42 0.0 0.0 0.00 0.00 0.00 73 1025.6
20260502035519 42 0.0 0.0 0.00 0.00 0.00 72 1025.7
20260502035048 42 0.0 0.0 0.00 0.00 0.00 71 1025.7
20260502035017 42 0.0 0.0 0.00 0.00 0.00 71 1025.7
20260502034535 42 0.0 0.0 0.00 0.00 0.00 71 1025.6
20260502034034 42 0.0 0.0 0.00 0.00 0.00 71 1025.6
20260502033532 42 0.0 0.0 0.00 0.00 0.00 71 1025.6
20260502033030 42 0.0 0.0 0.00 0.00 0.00 70 1025.5
20260502032527 42 0.0 0.0 0.00 0.00 0.00 70 1025.6
20260502032025 42 0.0 0.0 0.00 0.00 0.00 70 1025.6
20260502031523 42 0.0 0.0 0.00 0.00 0.00 69 1025.6
20260502031022 43 0.0 0.0 0.00 0.00 0.00 69 1025.6
20260502030520 43 0.0 0.0 0.00 0.00 0.00 69 1025.7
20260502030049 43 0.0 0.0 0.00 0.00 0.00 69 1025.6
20260502030017 43 0.0 0.0 0.00 0.00 0.00 69 1025.6
20260502025535 43 0.0 0.0 0.00 0.00 0.00 69 1025.6
20260502025034 43 0.0 0.0 0.00 0.00 0.00 68 1025.5
20260502024532 43 0.0 0.0 0.00 0.00 0.00 68 1025.5
20260502024030 43 0.0 0.0 0.00 0.00 0.00 68 1025.4
20260502023528 43 0.0 0.0 0.00 0.00 0.00 68 1025.5
20260502023026 43 0.0 0.0 0.00 0.00 0.00 68 1025.5
20260502022524 44 0.0 0.0 0.00 0.00 0.00 68 1025.4
20260502022022 44 0.0 0.0 0.00 0.00 0.00 68 1025.5
20260502021521 44 0.0 0.0 0.00 0.00 0.00 68 1025.6
20260502021019 44 0.0 0.0 0.00 0.00 0.00 68 1025.6
20260502020517 44 0.0 0.0 0.00 0.00 0.00 68 1025.5
20260502020035 44 0.0 0.0 0.00 0.00 0.00 67 1025.6
20260502015533 44 0.0 0.0 0.00 0.00 0.00 67 1025.5
20260502015031 44 0.0 0.0 0.00 0.00 0.00 67 1025.5
20260502014529 45 0.0 0.0 0.00 0.00 0.00 67 1025.6
20260502014028 45 0.0 0.0 0.00 0.00 0.00 67 1025.6
20260502013525 45 0.0 0.0 0.00 0.00 0.00 67 1025.6
20260502013035 45 0.0 0.0 0.00 0.00 0.00 67 1025.6
20260502012522 45 0.0 0.0 0.00 0.00 0.00 66 1025.6
20260502012020 45 0.0 0.0 0.00 0.00 0.00 67 1025.6
20260502011518 45 0.0 0.0 0.00 0.00 0.00 67 1025.6
20260502011050 45 0.0 0.0 0.00 0.00 0.00 67 1025.6
20260502011017 45 0.0 0.0 0.00 0.00 0.00 67 1025.6
20260502010534 45 0.0 0.0 0.00 0.00 0.00 66 1025.6
20260502010033 46 0.0 0.0 0.00 0.00 0.00 66 1025.5
20260502005531 46 0.0 0.0 0.00 0.00 0.00 67 1025.6
20260502005029 46 0.0 0.0 0.00 0.00 0.00 67 1025.5